TimeEST,TemperatureF,Dew PointF,Humidity,Sea Level PressureIn,VisibilityMPH,Wind Direction,Wind SpeedMPH,Gust SpeedMPH,PrecipitationIn,Events,Conditions,WindDirDegrees,DateUTC
12:15 AM,35.6,21.2,56,30.08,10.0,SSW,5.8,-,N/A,,Clear,210,2014-01-19 05:15:00
12:35 AM,35.6,21.2,56,30.07,10.0,SSW,5.8,-,N/A,,Clear,210,2014-01-19 05:35:00
12:55 AM,35.6,21.2,56,30.08,10.0,West,6.9,-,N/A,,Clear,260,2014-01-19 05:55:00
1:15 AM,33.8,23.0,65,30.09,10.0,West,5.8,-,N/A,,Clear,260,2014-01-19 06:15:00
1:35 AM,33.8,23.0,65,30.09,10.0,West,4.6,-,N/A,,Clear,270,2014-01-19 06:35:00
1:55 AM,33.8,23.0,65,30.09,10.0,WSW,3.5,-,N/A,,Scattered Clouds,250,2014-01-19 06:55:00
2:15 AM,35.6,21.2,56,30.09,10.0,SW,5.8,-,N/A,,Scattered Clouds,230,2014-01-19 07:15:00
2:35 AM,35.6,21.2,56,30.08,10.0,SW,6.9,-,N/A,,Clear,230,2014-01-19 07:35:00
2:55 AM,33.8,21.2,60,30.08,10.0,WSW,6.9,-,N/A,,Clear,240,2014-01-19 07:55:00
3:15 AM,35.6,21.2,56,30.07,10.0,SW,5.8,-,N/A,,Clear,230,2014-01-19 08:15:00
3:35 AM,35.6,21.2,56,30.07,10.0,SW,6.9,-,N/A,,Clear,220,2014-01-19 08:35:00
3:55 AM,35.6,21.2,56,30.07,10.0,SW,6.9,-,N/A,,Clear,230,2014-01-19 08:55:00
4:15 AM,35.6,19.4,52,30.07,10.0,WSW,8.1,-,N/A,,Clear,240,2014-01-19 09:15:00
4:35 AM,35.6,19.4,52,30.06,10.0,SW,4.6,-,N/A,,Clear,220,2014-01-19 09:35:00
4:55 AM,37.4,19.4,48,30.06,10.0,SSW,5.8,-,N/A,,Clear,210,2014-01-19 09:55:00
5:15 AM,37.4,19.4,48,30.06,10.0,Calm,Calm,-,N/A,,Clear,0,2014-01-19 10:15:00
5:35 AM,37.4,19.4,48,30.05,10.0,SSW,5.8,-,N/A,,Clear,200,2014-01-19 10:35:00
5:55 AM,37.4,19.4,48,30.05,10.0,North,-9999.0,-,N/A,,Clear,0,2014-01-19 10:55:00
6:45 AM,39.2,19.4,45,30.03,10.0,SSW,11.5,-,N/A,,Clear,210,2014-01-19 11:45:00
7:45 AM,39.2,19.4,45,30.03,10.0,SW,11.5,-,N/A,,Clear,230,2014-01-19 12:45:00
8:45 AM,42.8,23.0,46,30.05,10.0,WSW,11.5,-,N/A,,Mostly Cloudy,240,2014-01-19 13:45:00
9:45 AM,44.6,26.6,49,30.06,10.0,WSW,11.5,-,N/A,,Mostly Cloudy,240,2014-01-19 14:45:00
10:44 AM,46.4,28.4,50,30.05,10.0,SW,11.5,-,N/A,,Mostly Cloudy,230,2014-01-19 15:44:00
11:45 AM,51.8,30.2,44,30.04,10.0,West,13.8,-,N/A,,Clear,260,2014-01-19 16:45:00
12:45 PM,53.6,32.0,44,30.00,10.0,West,13.8,-,N/A,,Clear,270,2014-01-19 17:45:00
1:50 PM,55.4,32.0,41,29.97,10.0,WSW,16.1,-,N/A,,Clear,250,2014-01-19 18:50:00
3:45 PM,57.2,32.0,38,29.96,10.0,West,15.0,-,N/A,,Clear,270,2014-01-19 20:45:00
4:45 PM,55.4,30.2,38,29.98,10.0,West,12.7,-,N/A,,Clear,270,2014-01-19 21:45:00
5:00 PM,55.4,30.2,38,29.98,10.0,WNW,11.5,17.3,N/A,,Clear,300,2014-01-19 22:00:00
5:45 PM,51.8,30.2,44,29.99,10.0,WNW,9.2,-,N/A,,Clear,290,2014-01-19 22:45:00
6:50 PM,46.4,30.2,53,30.00,10.0,WSW,8.1,-,N/A,,Clear,250,2014-01-19 23:50:00
7:45 PM,44.6,30.2,57,30.02,10.0,West,5.8,-,N/A,,Clear,260,2014-01-20 00:45:00
8:45 PM,46.4,30.2,53,30.02,10.0,Calm,Calm,-,N/A,,Clear,0,2014-01-20 01:45:00
9:45 PM,44.6,30.2,57,30.03,10.0,WSW,5.8,-,N/A,,Clear,240,2014-01-20 02:45:00
11:15 PM,44.6,30.2,57,30.02,10.0,SW,6.9,-,N/A,,Clear,230,2014-01-20 04:15:00
11:35 PM,42.8,30.2,61,30.02,10.0,WSW,5.8,-,N/A,,Clear,250,2014-01-20 04:35:00
11:55 PM,42.8,30.2,61,30.01,10.0,West,5.8,-,N/A,,Clear,260,2014-01-20 04:55:00